Date String (YYYY-MM-DD hh:mm:ss) UTC,Instrument flags,Ambient pressure (hPa),Sample flow (lpm),Bypass flow (lpm),Sample temperature (°C),Ambient temperature (°C),ASC tube jacket temperature (°C),LED temperature (°C),Box temperature (°C),Sample RH (%),Span deviation,Mass concentration (μg/m³),Mass concentration (μg/m³),Mass concentration (μg/m³)
DateTimeUTC,F1_M11,P_M11,Q1_M11,Q2_M11,T1_M11,T2_M11,T3_M11,T4_M11,T5_M11,U1_M11,ZSPAN_M11,X0_M11,X2_M11,X1_M11
2021-10-16 22:00:00,,0833.1,5.00,0.00,30.3,29.3,00.0,39.2,32.1,09.3,0000.0,0011.68,0005.05,0004.37
2021-10-16 22:01:00,,0833.1,4.99,0.00,30.3,29.3,00.0,39.3,32.2,09.3,0000.0,0010.75,0005.06,0004.42
2021-10-16 22:02:00,,0833.2,5.00,0.00,30.4,29.4,00.0,39.3,32.2,09.3,0000.0,0011.07,0005.08,0004.47
2021-10-16 22:03:00,,0833.2,5.01,0.00,30.4,29.5,00.0,39.3,32.3,09.3,0000.0,0011.36,0005.12,0004.50
2021-10-16 22:04:00,,0833.2,4.99,0.00,30.4,29.6,00.0,39.3,32.3,09.3,0000.0,0011.42,0005.14,0004.52
2021-10-16 22:05:00,,0833.1,5.00,0.00,30.5,29.6,00.0,39.4,32.4,09.2,0000.0,0011.85,0005.21,0004.55
2021-10-16 22:06:00,,0833.2,5.01,0.00,30.5,29.7,00.0,39.4,32.4,09.2,0000.0,0012.54,0005.25,0004.58
2021-10-16 22:07:00,,0833.1,5.00,0.00,30.6,29.4,00.0,39.4,32.3,09.3,0000.0,0012.85,0005.29,0004.59
2021-10-16 22:08:00,,0833.1,5.00,0.00,30.4,27.3,00.0,39.4,31.8,09.3,0000.0,0013.00,0005.30,0004.60
2021-10-16 22:09:00,,0833.1,5.00,0.00,30.2,26.0,00.0,39.4,31.4,09.3,0000.0,0013.28,0005.31,0004.60
2021-10-16 22:10:00,,0833.1,4.99,0.00,30.1,26.2,00.0,39.3,31.4,09.4,0000.0,0012.65,0005.32,0004.61
2021-10-16 22:11:00,,0833.2,5.00,0.00,30.0,26.7,00.0,39.2,31.4,09.4,0000.0,0013.36,0005.36,0004.62
2021-10-16 22:12:00,,0833.1,5.00,0.00,30.0,27.2,00.0,39.2,31.5,09.4,0000.0,0014.44,0005.42,0004.63
2021-10-16 22:13:00,,0833.2,5.01,0.00,30.0,27.6,00.0,39.2,31.6,09.5,0000.0,0014.33,0005.40,0004.62
2021-10-16 22:14:00,,0833.2,5.00,0.00,30.0,28.0,00.0,39.2,31.7,09.5,0000.0,0014.04,0005.40,0004.61
2021-10-16 22:15:00,,0833.1,4.99,0.00,30.0,28.2,00.0,39.1,31.8,09.4,0000.0,0014.24,0005.45,0004.63
2021-10-16 22:16:00,,0833.1,5.01,0.00,30.0,28.5,00.0,39.1,31.8,09.4,0000.0,0014.04,0005.46,0004.65
2021-10-16 22:17:00,,0833.1,5.02,0.00,30.1,28.7,00.0,39.1,31.9,09.2,0000.0,0013.49,0005.49,0004.67
2021-10-16 22:18:00,,0833.2,5.00,0.00,30.1,28.8,00.0,39.1,31.9,09.3,0000.0,0013.19,0005.57,0004.69
2021-10-16 22:19:00,,0833.1,5.00,0.00,30.1,28.9,00.0,39.2,32.0,09.3,0000.0,0012.86,0005.61,0004.72
2021-10-16 22:20:00,,0833.1,5.01,0.00,30.2,29.0,00.0,39.2,32.0,09.3,0000.0,0013.70,0005.61,0004.74
2021-10-16 22:21:00,,0833.1,5.00,0.00,30.2,29.2,00.0,39.2,32.1,09.2,0000.0,0013.93,0005.60,0004.75
2021-10-16 22:22:00,,0833.1,4.99,0.00,30.3,29.2,00.0,39.2,32.1,09.3,0000.0,0013.96,0005.61,0004.76
2021-10-16 22:23:00,,0833.1,5.01,0.00,30.3,29.3,00.0,39.2,32.1,09.2,0000.0,0013.88,0005.61,0004.77
2021-10-16 22:24:00,,0833.1,5.01,0.00,30.3,29.4,00.0,39.2,32.2,09.1,0000.0,0014.05,0005.69,0004.80
2021-10-16 22:25:00,,0833.1,4.98,0.00,30.4,29.5,00.0,39.3,32.2,09.2,0000.0,0013.79,0005.75,0004.83
2021-10-16 22:26:00,,0833.1,5.01,0.00,30.4,29.6,00.0,39.3,32.3,09.3,0000.0,0013.91,0005.76,0004.82
2021-10-16 22:27:00,,0833.1,5.00,0.00,30.4,29.7,00.0,39.3,32.3,09.3,0000.0,0014.52,0005.72,0004.79
2021-10-16 22:28:00,,0833.1,5.02,0.00,30.5,29.7,00.0,39.4,32.4,09.3,0000.0,0015.69,0005.68,0004.76
2021-10-16 22:29:00,,0833.1,5.00,0.00,30.5,29.2,00.0,39.4,32.2,09.3,0000.0,0016.47,0005.62,0004.74
2021-10-16 22:30:00,,0833.1,5.00,0.00,30.4,26.9,00.0,39.3,31.5,09.4,0000.0,0016.66,0005.59,0004.72
2021-10-16 22:31:00,,0833.1,5.00,0.00,30.1,25.9,00.0,39.3,31.2,09.5,0000.0,0016.02,0005.56,0004.70
2021-10-16 22:32:00,,0833.0,5.01,0.00,30.0,26.2,00.0,39.3,31.3,09.6,0000.0,0015.72,0005.55,0004.67
2021-10-16 22:33:00,,0833.1,4.99,0.00,29.9,26.7,00.0,39.2,31.4,09.7,0000.0,0015.03,0005.47,0004.61
2021-10-16 22:34:00,,0833.1,5.01,0.00,29.9,27.2,00.0,39.2,31.5,09.7,0000.0,0013.93,0005.37,0004.54
2021-10-16 22:35:00,,0833.1,5.00,0.00,29.9,27.6,00.0,39.1,31.6,09.6,0000.0,0013.72,0005.26,0004.47
2021-10-16 22:36:00,,0833.0,4.99,0.00,29.9,28.0,00.0,39.1,31.7,09.7,0000.0,0013.49,0005.15,0004.41
2021-10-16 22:37:00,,0833.1,5.01,0.00,30.0,28.2,00.0,39.1,31.7,09.7,0000.0,0013.35,0005.09,0004.37
2021-10-16 22:38:00,,0833.1,4.99,0.00,30.0,28.5,00.0,39.1,31.8,09.5,0000.0,0013.03,0005.08,0004.35
2021-10-16 22:39:00,,0833.0,5.01,0.00,30.0,28.7,00.0,39.1,31.9,09.5,0000.0,0012.90,0005.11,0004.34
2021-10-16 22:40:00,,0833.0,4.99,0.00,30.1,28.8,00.0,39.1,31.9,09.4,0000.0,0012.99,0005.14,0004.35
2021-10-16 22:41:00,,0833.0,5.00,0.00,30.1,28.9,00.0,39.1,32.0,09.3,0000.0,0012.60,0005.12,0004.36
2021-10-16 22:42:00,,0833.0,5.01,0.00,30.2,29.1,00.0,39.1,32.0,09.2,0000.0,0012.28,0005.18,0004.38
2021-10-16 22:43:00,,0833.0,5.00,0.00,30.2,29.2,00.0,39.1,32.0,09.3,0000.0,0011.79,0005.21,0004.39
2021-10-16 22:44:00,,0833.0,5.00,0.00,30.2,29.2,00.0,39.2,32.1,09.3,0000.0,0011.93,0005.24,0004.42
2021-10-16 22:45:00,,0833.1,5.01,0.00,30.3,29.3,00.0,39.2,32.1,09.2,0000.0,0012.05,0005.30,0004.47
2021-10-16 22:46:00,,0833.0,4.99,0.00,30.3,29.4,00.0,39.2,32.2,09.2,0000.0,0012.06,0005.32,0004.50
2021-10-16 22:47:00,,0833.0,5.01,0.00,30.4,29.5,00.0,39.2,32.2,09.2,0000.0,0012.11,0005.39,0004.54
2021-10-16 22:48:00,,0833.1,5.01,0.00,30.4,29.6,00.0,39.3,32.3,09.1,0000.0,0012.74,0005.43,0004.58
2021-10-16 22:49:00,,0833.1,4.99,0.00,30.4,29.7,00.0,39.3,32.3,09.1,0000.0,0013.26,0005.45,0004.62
2021-10-16 22:50:00,,0833.1,5.00,0.00,30.5,29.5,00.0,39.3,32.3,09.2,0000.0,0012.61,0005.46,0004.62
2021-10-16 22:51:00,,0833.1,5.00,0.00,30.4,27.7,00.0,39.3,31.8,09.3,0000.0,0012.14,0005.44,0004.60
2021-10-16 22:52:00,,0833.1,4.99,0.00,30.2,26.0,00.0,39.3,31.3,09.3,0000.0,0012.57,0005.48,0004.59
2021-10-16 22:53:00,,0833.1,5.00,0.00,30.0,26.0,00.0,39.2,31.2,09.4,0000.0,0012.51,0005.42,0004.54
2021-10-16 22:54:00,,0833.0,5.02,0.00,29.9,26.5,00.0,39.2,31.2,09.5,0000.0,0013.35,0005.34,0004.50
2021-10-16 22:55:00,,0833.0,4.98,0.00,29.9,27.0,00.0,39.1,31.4,09.5,0000.0,0013.98,0005.31,0004.47
2021-10-16 22:56:00,,0833.1,5.01,0.00,29.9,27.5,00.0,39.1,31.5,09.5,0000.0,0013.97,0005.32,0004.43
2021-10-16 22:57:00,,0833.1,4.98,0.00,29.9,27.9,00.0,39.1,31.6,09.5,0000.0,0014.51,0005.32,0004.39
2021-10-16 22:58:00,,0833.1,5.00,0.00,29.9,28.2,00.0,39.0,31.7,09.5,0000.0,0014.95,0005.26,0004.35
2021-10-16 22:59:00,,0833.1,5.02,0.00,30.0,28.4,00.0,39.0,31.7,09.5,0000.0,0015.42,0005.19,0004.31
